Stations météo

réclame
Mon MeteoGroup
Preston, Moor Park, Grande-Bretagne (99113): Température de l'air & dewpoint: 07.07.2020 01:00:00 - 13.07.2020 01:00:00 (BST)Preston, Moor Park, Grande-Bretagne (99113): Quantités de précipitations: 07.07.2020 01:00:00 - 13.07.2020 01:00:00 (BST)
Date & Time tt [°C] td [°C] rr [mm]
13.07.2020 01:00:00 15,2 8,5 0,0
13.07.2020 00:00:00 15,3 9,5 0,0
12.07.2020 23:00:00 13,5 8,8 0,0
12.07.2020 22:00:00 15,5 8,8 0,0
12.07.2020 21:00:00 16,5 8,9 0,0
12.07.2020 20:00:00 17,0 9,0 0,0
12.07.2020 19:00:00 17,2 8,4 0,0
12.07.2020 18:00:00 18,7 9,7 0,0
12.07.2020 17:00:00 20,6 10,6 0,0
12.07.2020 16:00:00 19,3 8,1 0,0
12.07.2020 15:00:00 19,4 7,8 0,0
12.07.2020 14:00:00 18,8 9,0 0,0
12.07.2020 13:00:00 18,0 8,2 0,0
12.07.2020 12:00:00 17,7 8,2 0,0
12.07.2020 11:00:00 16,2 7,9 0,0
12.07.2020 10:00:00 15,6 9,9 0,0
12.07.2020 09:00:00 14,8 10,2 0,0
12.07.2020 08:00:00 12,8 10,0 0,0
12.07.2020 07:00:00 10,1 10,1 0,0
12.07.2020 06:00:00 7,2 7,0 0,0
12.07.2020 05:00:00 7,0 6,7 0,0
12.07.2020 04:00:00 7,4 7,1 0,0
12.07.2020 03:00:00 7,7 7,2 0,0
12.07.2020 02:00:00 8,5 7,7 0,0
12.07.2020 01:00:00 9,7 8,5 0,0
12.07.2020 00:00:00 10,3 8,1 0,0
11.07.2020 23:00:00 11,0 8,2 0,0
11.07.2020 22:00:00 12,7 8,1 0,0
11.07.2020 21:00:00 13,4 7,8 0,0
11.07.2020 20:00:00 14,6 8,6 0,0
11.07.2020 19:00:00 15,6 8,8 0,0
11.07.2020 18:00:00 15,0 8,9 0,0
11.07.2020 17:00:00 15,4 8,5 0,0
11.07.2020 16:00:00 15,5 7,3 0,0
11.07.2020 15:00:00 16,2 9,0 0,0
11.07.2020 14:00:00 16,5 8,0 0,0
11.07.2020 13:00:00 16,0 9,3 0,0
11.07.2020 12:00:00 15,8 9,5 0,0
11.07.2020 11:00:00 14,9 9,3 0,0
11.07.2020 10:00:00 14,6 10,4 0,0
11.07.2020 09:00:00 13,9 10,1 0,0
11.07.2020 08:00:00 14,0 11,7 0,0
11.07.2020 07:00:00 11,3 10,1 0,8
11.07.2020 06:00:00 11,8 10,4 0,0
11.07.2020 05:00:00 11,3 9,5 0,0
11.07.2020 04:00:00 11,7 9,3 0,0
11.07.2020 03:00:00 11,6 10,0 0,2
11.07.2020 02:00:00 11,9 9,0 0,0
11.07.2020 01:00:00 11,9 9,1 0,0
11.07.2020 00:00:00 11,2 8,8 0,0
10.07.2020 23:00:00 11,6 8,2 0,0
10.07.2020 22:00:00 12,6 9,6 0,0
10.07.2020 21:00:00 13,6 9,5 0,0
10.07.2020 20:00:00 14,6 9,5 0,0
10.07.2020 19:00:00 16,0 9,2 0,0
10.07.2020 18:00:00 16,6 9,4 0,0
10.07.2020 17:00:00 17,0 10,0 0,0
10.07.2020 16:00:00 17,0 9,9 0,0
10.07.2020 15:00:00 16,9 9,5 0,0
10.07.2020 14:00:00 15,8 9,4 0,0
10.07.2020 13:00:00 16,6 10,4 0,0
10.07.2020 12:00:00 14,9 9,9 0,0
10.07.2020 11:00:00 14,4 10,1 0,0
10.07.2020 10:00:00 13,1 10,2 0,0
10.07.2020 09:00:00 12,7 9,8 0,0
10.07.2020 08:00:00 12,1 10,4 0,0
10.07.2020 07:00:00 10,6 10,3 0,0
10.07.2020 06:00:00 8,5 8,1 0,0
10.07.2020 05:00:00 9,5 9,1 0,0
10.07.2020 04:00:00 9,0 8,6 0,0
10.07.2020 03:00:00 9,2 8,6 0,0
10.07.2020 02:00:00 10,3 9,4 0,0
10.07.2020 01:00:00 12,0 11,2 0,4
10.07.2020 00:00:00 12,2 11,5 0,2
09.07.2020 23:00:00 12,5 11,2 0,0
09.07.2020 22:00:00 12,9 11,2 0,0
09.07.2020 21:00:00 13,2 10,9 0,0
09.07.2020 20:00:00 13,4 10,9 0,0
09.07.2020 19:00:00 13,5 11,0 0,0
09.07.2020 18:00:00 13,7 11,9 0,0
09.07.2020 17:00:00 12,7 11,4 0,2
09.07.2020 16:00:00 13,3 11,6 0,0
09.07.2020 15:00:00 13,7 11,2 0,0
09.07.2020 14:00:00 14,2 10,4 0,0
09.07.2020 13:00:00 13,8 10,0 0,0
09.07.2020 12:00:00 13,9 10,3 0,0
09.07.2020 11:00:00 14,0 10,7 0,0
09.07.2020 10:00:00 13,4 10,6 0,0
09.07.2020 09:00:00 12,8 10,3 0,0
09.07.2020 08:00:00 11,5 10,3 0,0
09.07.2020 07:00:00 11,0 10,1 0,0
09.07.2020 06:00:00 10,7 10,2 0,4
09.07.2020 05:00:00 11,1 10,4 0,4
09.07.2020 04:00:00 11,0 10,7 2,4
09.07.2020 03:00:00 11,3 10,9 2,4
09.07.2020 02:00:00 11,7 11,4 2,0
09.07.2020 01:00:00 11,9 11,6 2,8
09.07.2020 00:00:00 12,0 11,7 0,6
08.07.2020 23:00:00 12,0 11,6 2,0
08.07.2020 22:00:00 12,2 11,8 2,2
08.07.2020 21:00:00 12,4 11,7 2,4
08.07.2020 20:00:00 13,1 11,9 1,0
08.07.2020 19:00:00 14,2 11,5 0,0
08.07.2020 18:00:00 15,1 10,8 0,0
08.07.2020 17:00:00 15,3 10,8 0,0
08.07.2020 16:00:00 15,9 11,0 0,0
08.07.2020 15:00:00 16,0 10,8 0,0
08.07.2020 14:00:00 16,1 10,9 0,0
08.07.2020 13:00:00 16,1 10,6 0,0
08.07.2020 12:00:00 16,2 11,0 0,0
08.07.2020 11:00:00 14,8 10,5 0,0
08.07.2020 10:00:00 14,4 11,1 0,0
08.07.2020 09:00:00 13,7 11,6 0,0
08.07.2020 08:00:00 12,6 10,5 0,0
08.07.2020 07:00:00 11,7 10,4 0,0
08.07.2020 06:00:00 11,3 10,7 0,0
08.07.2020 05:00:00 11,3 10,8 0,2
08.07.2020 04:00:00 11,4 11,1 0,0
08.07.2020 03:00:00 11,3 11,1 0,0
08.07.2020 02:00:00 11,2 11,0 1,0
08.07.2020 01:00:00 11,3 11,0 1,0
08.07.2020 00:00:00 11,4 11,1 0,8
07.07.2020 23:00:00 11,5 11,2 0,6
07.07.2020 22:00:00 11,7 11,3 0,0
07.07.2020 21:00:00 11,7 11,2 0,2
07.07.2020 20:00:00 12,1 11,2 0,0
07.07.2020 19:00:00 12,1 10,8 0,2
07.07.2020 18:00:00 11,7 10,6 0,2
07.07.2020 17:00:00 12,4 11,1 0,4
07.07.2020 16:00:00 12,1 10,9 1,4
07.07.2020 15:00:00 12,4 10,6 0,8
07.07.2020 14:00:00 13,7 10,6 0,0
07.07.2020 13:00:00 12,9 11,3 0,6
07.07.2020 12:00:00 13,2 10,2 0,0
07.07.2020 11:00:00 13,2 10,1 0,0
07.07.2020 10:00:00 12,7 10,1 0,6
07.07.2020 09:00:00 13,9 10,5 0,0
07.07.2020 08:00:00 13,8 10,6 0,0
07.07.2020 07:00:00 12,4 10,8 0,0
07.07.2020 06:00:00 11,0 9,5 0,0
07.07.2020 05:00:00 11,4 9,7 0,0
07.07.2020 04:00:00 11,5 9,5 0,0
07.07.2020 03:00:00 11,7 10,1 0,0
07.07.2020 02:00:00 12,1 10,3 0,0
07.07.2020 01:00:00 12,3 9,8 0,0

tt = Température de l'air
td = dewpoint
rr = Quantités de précipitations

stations d'obs. à proximité